When you browse on this site, cookies collect data to enhance your experience and personalize the content and advertising you see.
Visit our Privacy Policy to learn more. By continuing to use the site, you agree to this use of cookies and data.
  • In Portugal
  • List of Countries
  • For 7 days
  • Water Temperature
  • Satellite Maps
  • Weather Map
  • Weather Widgets
  • user-avatar
    Login

    Hourly Weather Vasilkovka

    Today, 26 May, Sunday

    Time Temperature Precipitation Wind Pressure Humidity
    00:00 +16°C° 0.2 mm 2 mps 744 mmHg 86%
    01:00 +16°C° 0.2 mm 2 mps 744 mmHg 87%
    02:00 +16°C° 0.2 mm 2 mps 743 mmHg 89%
    03:00 +16°C° 0.1 mm 2 mps 744 mmHg 89%
    04:00 +16°C° 0.1 mm 2 mps 744 mmHg 89%
    05:00 +16°C° 0.1 mm 2 mps 744 mmHg 89%
    06:00 +17°C° 0.2 mm 3 mps 744 mmHg 84%
    07:00 +19°C° 0.2 mm 3 mps 744 mmHg 80%
    08:00 +20°C° 0.2 mm 4 mps 745 mmHg 75%
    09:00 +21°C° 0.7 mm 4 mps 745 mmHg 71%
    10:00 +22°C° 0.7 mm 4 mps 745 mmHg 67%
    11:00 +23°C° 0.7 mm 5 mps 745 mmHg 62%
    12:00 +25°C° 0.7 mm 5 mps 745 mmHg 62%
    13:00 +25°C° 0.7 mm 5 mps 745 mmHg 62%
    14:00 +24°C° 0.7 mm 6 mps 746 mmHg 62%
    15:00 +25°C° 0.5 mm 5 mps 746 mmHg 65%
    16:00 +23°C° 0.5 mm 5 mps 746 mmHg 68%
    17:00 +23°C° 0.5 mm 5 mps 746 mmHg 71%
    18:00 +21°C° 0.2 mm 4 mps 747 mmHg 76%
    19:00 +20°C° 0.2 mm 4 mps 747 mmHg 81%
    20:00 +18°C° 0.2 mm 4 mps 748 mmHg 86%
    21:00 +18°C° 0 mm 4 mps 748 mmHg 87%
    22:00 +17°C° 0 mm 3 mps 749 mmHg 88%
    23:00 +16°C° 0 mm 3 mps 749 mmHg 89%

    Tomorrow, 27 May, Monday

    Time Temperature Precipitation Wind Pressure Humidity
    00:00 +16°C° 0 mm 3 mps 750 mmHg 91%
    01:00 +14°C° 0 mm 3 mps 750 mmHg 92%
    02:00 +14°C° 0 mm 3 mps 750 mmHg 93%
    03:00 +15°C° 0 mm 2 mps 751 mmHg 92%
    04:00 +15°C° 0 mm 2 mps 751 mmHg 91%
    05:00 +15°C° 0 mm 2 mps 752 mmHg 90%
    06:00 +17°C° 0 mm 2 mps 752 mmHg 81%
    07:00 +19°C° 0 mm 2 mps 752 mmHg 72%
    08:00 +21°C° 0 mm 2 mps 753 mmHg 63%
    09:00 +23°C° 0 mm 2 mps 753 mmHg 59%
    10:00 +24°C° 0 mm 2 mps 753 mmHg 55%
    11:00 +25°C° 0 mm 2 mps 753 mmHg 50%
    12:00 +25°C° 0 mm 3 mps 753 mmHg 49%
    13:00 +26°C° 0 mm 3 mps 753 mmHg 48%
    14:00 +26°C° 0 mm 3 mps 753 mmHg 47%
    15:00 +26°C° 0 mm 3 mps 753 mmHg 49%
    16:00 +26°C° 0 mm 3 mps 753 mmHg 51%
    17:00 +26°C° 0 mm 2 mps 753 mmHg 54%
    18:00 +24°C° 0 mm 2 mps 753 mmHg 58%
    19:00 +22°C° 0 mm 1 mps 753 mmHg 62%
    20:00 +19°C° 0 mm 0 mps 754 mmHg 66%
    21:00 +20°C° 0 mm 1 mps 754 mmHg 67%
    22:00 +20°C° 0 mm 1 mps 754 mmHg 67%
    23:00 +18°C° 0 mm 2 mps 754 mmHg 68%

    Day after tomorrow, 28 May, Tuesday

    Time Temperature Precipitation Wind Pressure Humidity
    00:00 +18°C° 0 mm 2 mps 754 mmHg 69%
    01:00 +18°C° 0 mm 2 mps 754 mmHg 71%
    02:00 +17°C° 0 mm 2 mps 755 mmHg 72%
    03:00 +17°C° 0 mm 2 mps 755 mmHg 74%
    04:00 +17°C° 0 mm 2 mps 755 mmHg 75%
    05:00 +17°C° 0 mm 2 mps 755 mmHg 76%
    06:00 +19°C° 0 mm 2 mps 755 mmHg 71%
    07:00 +21°C° 0 mm 2 mps 755 mmHg 65%
    08:00 +24°C° 0 mm 3 mps 755 mmHg 60%
    09:00 +26°C° 0 mm 3 mps 755 mmHg 56%
    10:00 +27°C° 0 mm 3 mps 755 mmHg 53%
    11:00 +28°C° 0 mm 3 mps 755 mmHg 49%
    12:00 +28°C° 0 mm 3 mps 755 mmHg 48%
    13:00 +28°C° 0 mm 3 mps 754 mmHg 48%
    14:00 +29°C° 0 mm 3 mps 754 mmHg 48%
    15:00 +29°C° 0 mm 3 mps 754 mmHg 51%
    16:00 +28°C° 0 mm 3 mps 754 mmHg 54%
    17:00 +28°C° 0 mm 3 mps 754 mmHg 57%
    18:00 +26°C° 0 mm 3 mps 754 mmHg 62%
    19:00 +24°C° 0 mm 3 mps 754 mmHg 67%
    20:00 +21°C° 0 mm 3 mps 754 mmHg 73%
    21:00 +20°C° 0 mm 3 mps 754 mmHg 75%
    22:00 +20°C° 0 mm 3 mps 754 mmHg 76%
    23:00 +19°C° 0 mm 2 mps 754 mmHg 78%

    29 May, Wednesday

    Time Temperature Precipitation Wind Pressure Humidity
    00:00 +18°C° 0 mm 2 mps 754 mmHg 77%
    01:00 +18°C° 0 mm 2 mps 754 mmHg 77%
    02:00 +17°C° 0 mm 2 mps 754 mmHg 76%
    03:00 +18°C° 0 mm 2 mps 754 mmHg 78%
    04:00 +18°C° 0 mm 3 mps 754 mmHg 81%
    05:00 +18°C° 0 mm 3 mps 754 mmHg 83%
    06:00 +20°C° 0 mm 4 mps 754 mmHg 76%
    07:00 +22°C° 0 mm 4 mps 754 mmHg 68%
    08:00 +25°C° 0 mm 5 mps 754 mmHg 60%
    09:00 +26°C° 0 mm 5 mps 754 mmHg 57%
    10:00 +27°C° 0 mm 6 mps 753 mmHg 54%
    11:00 +27°C° 0 mm 6 mps 753 mmHg 51%
    12:00 +28°C° 0 mm 6 mps 753 mmHg 50%
    13:00 +28°C° 0 mm 5 mps 753 mmHg 49%
    14:00 +29°C° 0 mm 5 mps 752 mmHg 48%
    15:00 +28°C° 0 mm 5 mps 752 mmHg 52%
    16:00 +28°C° 0 mm 4 mps 752 mmHg 55%
    17:00 +28°C° 0 mm 4 mps 752 mmHg 58%
    18:00 +26°C° 0 mm 3 mps 752 mmHg 62%
    19:00 +24°C° 0 mm 3 mps 752 mmHg 67%
    20:00 +21°C° 0 mm 3 mps 752 mmHg 72%
    21:00 +21°C° 0 mm 3 mps 752 mmHg 73%
    22:00 +20°C° 0 mm 3 mps 752 mmHg 75%
    23:00 +19°C° 0 mm 3 mps 752 mmHg 77%

    30 May, Thursday

    Time Temperature Precipitation Wind Pressure Humidity
    00:00 +19°C° 0 mm 3 mps 752 mmHg 78%
    01:00 +19°C° 0 mm 3 mps 752 mmHg 78%
    02:00 +18°C° 0 mm 3 mps 752 mmHg 79%
    03:00 +18°C° 0 mm 3 mps 752 mmHg 79%
    04:00 +18°C° 0 mm 4 mps 752 mmHg 79%
    05:00 +18°C° 0 mm 4 mps 752 mmHg 79%
    06:00 +20°C° 0 mm 4 mps 752 mmHg 73%
    07:00 +22°C° 0 mm 5 mps 752 mmHg 66%
    08:00 +25°C° 0 mm 5 mps 752 mmHg 60%
    09:00 +27°C° 0 mm 5 mps 752 mmHg 55%
    10:00 +28°C° 0 mm 5 mps 752 mmHg 50%
    11:00 +29°C° 0 mm 6 mps 752 mmHg 45%
    12:00 +30°C° 0 mm 5 mps 752 mmHg 45%
    13:00 +30°C° 0 mm 5 mps 752 mmHg 44%
    14:00 +32°C° 0 mm 5 mps 751 mmHg 43%
    15:00 +30°C° 0 mm 4 mps 751 mmHg 47%
    16:00 +30°C° 0 mm 3 mps 751 mmHg 51%
    17:00 +30°C° 0 mm 3 mps 751 mmHg 55%
    18:00 +28°C° 0 mm 2 mps 751 mmHg 58%
    19:00 +26°C° 0 mm 2 mps 751 mmHg 62%
    20:00 +24°C° 0 mm 2 mps 751 mmHg 65%
    21:00 +23°C° 0 mm 2 mps 751 mmHg 68%
    22:00 +21°C° 0 mm 2 mps 751 mmHg 70%
    23:00 +21°C° 0 mm 2 mps 752 mmHg 72%

    31 May, Friday

    Time Temperature Precipitation Wind Pressure Humidity
    00:00 +20°C° 0 mm 2 mps 752 mmHg 73%
    01:00 +20°C° 0 mm 2 mps 752 mmHg 75%
    02:00 +20°C° 0 mm 2 mps 751 mmHg 76%
    03:00 +20°C° 0 mm 2 mps 751 mmHg 76%
    04:00 +20°C° 0 mm 3 mps 751 mmHg 76%
    05:00 +20°C° 0 mm 3 mps 751 mmHg 76%
    06:00 +22°C° 0 mm 3 mps 751 mmHg 71%
    07:00 +25°C° 0 mm 3 mps 752 mmHg 66%
    08:00 +27°C° 0 mm 4 mps 752 mmHg 60%
    09:00 +28°C° 0 mm 4 mps 751 mmHg 56%
    10:00 +30°C° 0 mm 4 mps 751 mmHg 51%
    11:00 +32°C° 0 mm 4 mps 751 mmHg 47%
    12:00 +32°C° 0 mm 4 mps 751 mmHg 47%
    13:00 +31°C° 0 mm 3 mps 751 mmHg 48%
    14:00 +31°C° 0 mm 3 mps 750 mmHg 48%
    15:00 +31°C° 0 mm 2 mps 750 mmHg 51%
    16:00 +30°C° 0 mm 2 mps 750 mmHg 54%
    17:00 +30°C° 0 mm 2 mps 750 mmHg 56%
    18:00 +29°C° 0 mm 2 mps 751 mmHg 58%
    19:00 +28°C° 0 mm 2 mps 751 mmHg 59%
    20:00 +27°C° 0 mm 2 mps 751 mmHg 60%
    21:00 +26°C° 0 mm 2 mps 751 mmHg 61%
    22:00 +26°C° 0 mm 2 mps 751 mmHg 62%
    23:00 +25°C° 0 mm 2 mps 751 mmHg 63%
    Show more